{"data":{"norad_id":56714,"intl_designator":"2023-068E","name":"ONEWEB-0678","alt_names":[],"object_type":"PAYLOAD","status":"ACTIVE","operator":null,"country":"UK","launch_date":"2023-05-20","launch_site_code":"AFWTR","launch_vehicle":null,"mission":null,"orbit_class":"UNKNOWN","rcs_meters":null,"size_class":null,"mass_kg":null,"dimensions":null,"purposes":["comms"],"wikipedia_slug":null,"has_3d_model":false,"image_url":null,"decayed_at":null,"tle_current":{"epoch":"2026-05-25T00:55:30.732096Z","epoch_age_seconds":65635,"freshness":"FRESH","line1":"1 56714U 23068E   26145.03855014 -.00000088  00000+0 -26828-3 0  9992","line2":"2 56714  87.8998 263.8042 0001749  92.6333 267.4998 13.15547437146248","mean_motion":13.15547437,"eccentricity":0.0001749,"inclination_deg":87.8998,"raan_deg":263.8042,"arg_perigee_deg":92.6333,"mean_anomaly_deg":267.4998,"bstar":-0.00026828,"rev_number":14624,"period_min":109.46013495977,"perigee_km":1200.4493160927,"apogee_km":1203.1007693252,"semimajor_km":7579.9120427089,"source":"CELESTRAK","updated_at":"2026-05-25T13:38:22.708925Z"}}}